Location: Newark
(25.6108°S, 54.5803°W)
Time: 17:26:49
(UTC+00:00)

Courier 1B Rocket - Pass Details

Date: 27 October 2020
Orbit: 920 x 1202 km, 28.2° (Epoch: 22 November)

Event Time Altitude Azimuth Distance (km) Brightness Sun altitude
Rises 14:20:22 0° 257° (WSW) 3,662 7.8 70.8°
Reaches altitude 10° 14:23:04 10° 257° (WSW) 2,683 7.3 71.3°
Maximum altitude 14:29:30 86° 345° (NNW) 934 6.9 72.4°
Drops below altitude 10° 14:35:46 10° 73° (ENE) 2,611 7.6 73.4°
Sets 14:38:22 0° 74° (ENE) 3,557 8.1 73.8°
